Content
SEND FEEDBACK

Daily
Averages
Monthly
Summary
United States of America

ACHANG BAY, GUAM


Home > North America > United States > Guam
Elevation: 30 feet     Latitude: 13 16N     Longitude: 144 45E

WEATHER
 
SELECT A DAY
Number of Records: 342,273;   Date Range: 1/1/95 - 8/30/14
 
SHARE

PRINT THIS DATA

[ ← Previous Day ]
WEATHER ALMANAC - MARCH 14, 2014
[ Next Day → ]
[ °C ]   °F
Weather ElementAverageHighLow
Temperature79.3 °F84.2 °F (12:08 pm)76.6 °F (1:58 am)
Dewpoint74.1 °F75.2 °F (9:33 am)73 °F (4:58 am)
Humidity84.4 %94 % (10:09 pm)74 % (12:08 pm)
Barometer29.98 in30.03 in (10:09 pm)29.91 in (3:58 am)
Wind Speed15.7 mph23 mph (9:58 am)
Wind Gust27.6 mph (1:41 am)
Weather ElementAverage
Visibility10 mi
Wind DirectionENE (71.7 °)

Weather ElementTotal
Precipitation0.01 in
Cooling Degree Days15.4 (Base 65)
Growing Degree Days30.4 (Base 50)
Averaged from 137 records on March 14, 2014
WEATHER CONDITIONS BREAKOUT
WIND DIRECTION BREAKOUT
WEATHER BY HOUR - MARCH 14, 2014
[ °C ]   °F
Local TimeTemperatureDewpointHumidityBarometerVisibilityWind DirectionWind SpeedGust SpeedPrecipitationEventsConditions
12:38 AM78.8 °F73.4 °F83 %29.98 in10.0 miENE (70°)16.1 mphMostly Cloudy
12:43 AM78.8 °F73.4 °F83 %29.98 in10.0 miENE (70°)18.4 mphScattered Clouds
12:58 AM78.1 °F73.4 °F85 %29.96 in10.0 miENE (70°)16.1 mphMostly Cloudy
1:18 AM77.0 °F73.4 °F89 %29.97 in10.0 miENE (70°)18.4 mph26.5 mphMostly Cloudy
1:23 AM77.0 °F73.4 °F89 %29.97 in10.0 miENE (70°)16.1 mph26.5 mphScattered Clouds
1:41 AM77.0 °F73.4 °F89 %29.97 in10.0 miENE (70°)16.1 mph27.6 mphRainLight Rain
1:51 AM77.0 °F73.4 °F89 %29.97 in10.0 miEast (80°)18.4 mphRainLight Rain
1:55 AM77.0 °F73.4 °F89 %29.97 in10.0 miEast (80°)16.1 mphMostly Cloudy
1:58 AM76.6 °F73.2 °F89 %29.94 in10.0 miEast (80°)15.0 mph0.01 inMostly Cloudy
2:03 AM77.0 °F73.4 °F89 %29.97 in10.0 miEast (80°)17.3 mphOvercast
2:37 AM77.0 °F73.4 °F89 %29.95 in10.0 miENE (70°)20.7 mph25.3 mphRainLight Rain
2:52 AM77.0 °F73.4 °F89 %29.95 in10.0 miENE (70°)15.0 mphMostly Cloudy
2:58 AM77.2 °F73.4 °F88 %29.92 in10.0 miENE (70°)18.4 mph0.00 inMostly Cloudy
3:13 AM77.0 °F73.4 °F89 %29.95 in10.0 miENE (70°)17.3 mphMostly Cloudy
3:18 AM77.0 °F73.4 °F89 %29.95 in10.0 miENE (70°)16.1 mph23.0 mphMostly Cloudy
3:23 AM77.0 °F73.4 °F89 %29.95 in10.0 miENE (70°)16.1 mph23.0 mphMostly Cloudy
3:28 AM77.0 °F73.4 °F89 %29.95 in10.0 miENE (70°)16.1 mphMostly Cloudy
3:58 AM77.5 °F73.2 °F86 %29.91 in10.0 miEast (80°)12.7 mphScattered Clouds
4:28 AM77.0 °F73.4 °F89 %29.95 in10.0 miENE (70°)16.1 mphMostly Cloudy
4:33 AM77.0 °F73.4 °F89 %29.95 in10.0 miEast (80°)16.1 mphMostly Cloudy
4:48 AM77.0 °F73.4 °F89 %29.95 in10.0 miENE (70°)16.1 mphMostly Cloudy
4:53 AM77.0 °F73.4 °F89 %29.95 in10.0 miEast (80°)15.0 mphMostly Cloudy
4:58 AM77.4 °F73.0 °F86 %29.92 in10.0 miENE (70°)12.7 mphMostly Cloudy
5:08 AM77.0 °F73.4 °F89 %29.95 in10.0 miEast (80°)16.1 mphMostly Cloudy
5:23 AM77.0 °F73.4 °F89 %29.95 in10.0 miEast (80°)12.7 mphMostly Cloudy
5:48 AM77.0 °F73.4 °F89 %29.96 in10.0 miEast (80°)15.0 mphMostly Cloudy
5:53 AM77.0 °F73.4 °F89 %29.96 in10.0 miENE (70°)16.1 mphMostly Cloudy
5:58 AM77.5 °F73.4 °F87 %29.94 in10.0 miEast (80°)17.3 mphMostly Cloudy
6:08 AM77.0 °F73.4 °F89 %29.97 in10.0 miENE (70°)18.4 mphMostly Cloudy
6:13 AM77.0 °F73.4 °F89 %29.97 in10.0 miENE (70°)18.4 mphMostly Cloudy
6:18 AM77.0 °F73.4 °F89 %29.97 in10.0 miEast (80°)19.6 mphMostly Cloudy
6:28 AM77.0 °F73.4 °F89 %29.98 in10.0 miENE (70°)16.1 mphScattered Clouds
6:38 AM77.0 °F73.4 °F89 %29.98 in10.0 miEast (80°)16.1 mph21.9 mphScattered Clouds
6:43 AM77.0 °F73.4 °F89 %29.98 in10.0 miENE (70°)16.1 mphMostly Cloudy
6:58 AM77.7 °F73.8 °F88 %29.96 in10.0 miEast (80°)13.8 mphMostly Cloudy
7:03 AM78.8 °F73.4 °F83 %29.98 in10.0 miENE (70°)13.8 mphMostly Cloudy
7:13 AM78.8 °F73.4 °F83 %29.99 in10.0 miEast (80°)15.0 mphScattered Clouds
7:23 AM78.8 °F73.4 °F83 %29.99 in10.0 miENE (70°)16.1 mphMostly Cloudy
7:28 AM78.8 °F73.4 °F83 %29.99 in10.0 miENE (70°)17.3 mphMostly Cloudy
7:58 AM78.8 °F73.4 °F83 %29.97 in10.0 miENE (70°)13.8 mphMostly Cloudy
8:18 AM78.8 °F73.4 °F83 %30.00 in10.0 miEast (90°)16.1 mphScattered Clouds
8:23 AM78.8 °F73.4 °F83 %30.01 in10.0 miEast (80°)16.1 mphMostly Cloudy
8:58 AM80.1 °F74.1 °F82 %29.99 in10.0 miENE (70°)16.1 mphMostly Cloudy
9:13 AM80.6 °F73.4 °F79 %30.02 in10.0 miEast (80°)18.4 mphMostly Cloudy
9:18 AM80.6 °F73.4 °F79 %30.02 in10.0 miENE (70°)17.3 mphMostly Cloudy
9:33 AM80.6 °F75.2 °F84 %30.02 in10.0 miENE (70°)18.4 mph25.3 mphMostly Cloudy
9:38 AM80.6 °F75.2 °F84 %30.02 in10.0 miENE (70°)18.4 mph25.3 mphMostly Cloudy
9:48 AM80.6 °F75.2 °F84 %30.02 in10.0 miENE (70°)17.3 mph25.3 mphMostly Cloudy
9:53 AM80.6 °F75.2 °F84 %30.02 in10.0 miEast (80°)17.3 mphMostly Cloudy
9:58 AM81.5 °F74.5 °F79 %29.99 in10.0 miENE (70°)23.0 mphMostly Cloudy
10:28 AM82.4 °F75.2 °F79 %30.02 in10.0 miENE (70°)17.3 mph24.2 mphMostly Cloudy
10:53 AM82.4 °F75.2 °F79 %30.02 in10.0 miENE (70°)19.6 mph24.2 mphMostly Cloudy
10:58 AM82.2 °F75.2 °F79 %29.99 in10.0 miENE (70°)20.7 mph24.2 mphMostly Cloudy
11:53 AM82.4 °F75.2 °F79 %30.00 in10.0 miENE (70°)20.7 mphMostly Cloudy
11:58 AM82.4 °F74.8 °F78 %29.97 in10.0 miEast (80°)18.4 mphMostly Cloudy
12:08 PM84.2 °F75.2 °F74 %30.00 in10.0 miEast (80°)16.1 mph25.3 mphMostly Cloudy
12:13 PM84.2 °F75.2 °F74 %30.00 in10.0 miENE (70°)16.1 mphMostly Cloudy
12:28 PM82.4 °F75.2 °F79 %29.99 in10.0 miENE (70°)16.1 mph21.9 mphMostly Cloudy
12:38 PM82.4 °F75.2 °F79 %29.99 in10.0 miENE (60°)18.4 mphMostly Cloudy
12:43 PM82.4 °F75.2 °F79 %29.99 in10.0 miENE (70°)18.4 mphMostly Cloudy
12:48 PM82.4 °F75.2 °F79 %29.99 in10.0 miENE (60°)17.3 mphMostly Cloudy
12:58 PM83.3 °F74.8 °F76 %29.96 in10.0 miEast (80°)17.3 mph24.2 mphMostly Cloudy
1:23 PM82.4 °F75.2 °F79 %29.98 in10.0 miENE (70°)17.3 mphMostly Cloudy
1:28 PM82.4 °F75.2 °F79 %29.98 in10.0 miENE (70°)16.1 mphMostly Cloudy
1:58 PM82.9 °F74.8 °F76 %29.94 in10.0 miEast (80°)17.3 mphScattered Clouds
2:03 PM82.4 °F75.2 °F79 %29.97 in10.0 miENE (70°)17.3 mphMostly Cloudy
2:13 PM82.4 °F75.2 °F79 %29.96 in10.0 miENE (60°)17.3 mphMostly Cloudy
2:18 PM82.4 °F75.2 °F79 %29.96 in10.0 miENE (70°)17.3 mphMostly Cloudy
2:33 PM82.4 °F75.2 °F79 %29.96 in10.0 miENE (70°)20.7 mphMostly Cloudy
2:38 PM84.2 °F75.2 °F74 %29.96 in10.0 miENE (70°)17.3 mphScattered Clouds
2:43 PM82.4 °F75.2 °F79 %29.95 in10.0 miENE (70°)18.4 mphScattered Clouds
2:48 PM82.4 °F75.2 °F79 %29.95 in10.0 miEast (80°)18.4 mphMostly Cloudy
2:53 PM82.4 °F75.2 °F79 %29.95 in10.0 miENE (70°)18.4 mphScattered Clouds
2:58 PM82.2 °F74.5 °F77 %29.92 in10.0 miEast (80°)16.1 mphScattered Clouds
3:08 PM82.4 °F75.2 °F79 %29.95 in10.0 miENE (70°)17.3 mph23.0 mphMostly Cloudy
3:18 PM82.4 °F75.2 °F79 %29.94 in10.0 miEast (80°)18.4 mphScattered Clouds
3:48 PM82.4 °F75.2 °F79 %29.94 in10.0 miENE (70°)16.1 mphMostly Cloudy
3:53 PM82.4 °F75.2 °F79 %29.94 in10.0 miENE (70°)18.4 mphScattered Clouds
3:58 PM82.0 °F74.3 °F77 %29.91 in10.0 miEast (80°)17.3 mphScattered Clouds
4:03 PM82.4 °F75.2 °F79 %29.94 in10.0 miENE (60°)16.1 mphMostly Cloudy
4:33 PM80.6 °F75.2 °F84 %29.95 in10.0 miENE (70°)18.4 mphScattered Clouds
4:38 PM80.6 °F75.2 °F84 %29.95 in10.0 miENE (70°)17.3 mphMostly Cloudy
4:48 PM80.6 °F73.4 °F79 %29.95 in10.0 miEast (80°)18.4 mphScattered Clouds
4:58 PM81.1 °F74.1 °F79 %29.92 in10.0 miEast (80°)18.4 mphScattered Clouds
5:03 PM80.6 °F73.4 °F79 %29.95 in10.0 miENE (70°)13.8 mphScattered Clouds
5:18 PM80.6 °F75.2 °F84 %29.96 in10.0 miENE (70°)12.7 mphMostly Cloudy
5:28 PM80.6 °F73.4 °F79 %29.96 in10.0 miENE (70°)16.1 mph20.7 mphMostly Cloudy
5:38 PM80.6 °F73.4 °F79 %29.96 in10.0 miENE (70°)16.1 mphMostly Cloudy
5:48 PM80.6 °F73.4 °F79 %29.96 in10.0 miENE (70°)13.8 mphMostly Cloudy
5:58 PM79.7 °F74.3 °F83 %29.94 in10.0 miENE (70°)12.7 mphMostly Cloudy
6:18 PM78.8 °F73.4 °F83 %29.97 in10.0 miENE (70°)12.7 mphMostly Cloudy
6:23 PM78.8 °F73.4 °F83 %29.97 in10.0 miENE (70°)16.1 mphMostly Cloudy
6:33 PM78.8 °F73.4 °F83 %29.98 in10.0 miEast (90°)16.1 mphMostly Cloudy
6:38 PM78.8 °F73.4 °F83 %29.98 in10.0 miEast (80°)12.7 mphScattered Clouds
6:48 PM78.8 °F73.4 °F83 %29.98 in10.0 miENE (70°)15.0 mphMostly Cloudy
6:58 PM78.6 °F74.3 °F87 %29.96 in10.0 miEast (80°)12.7 mphScattered Clouds
7:08 PM78.8 °F73.4 °F83 %29.98 in10.0 miEast (80°)13.8 mphMostly Cloudy
7:13 PM78.8 °F73.4 °F83 %29.99 in10.0 miENE (70°)12.7 mphScattered Clouds
7:17 PM78.8 °F75.2 °F89 %29.99 in10.0 miENE (70°)12.7 mphRainLight Rain
7:22 PM78.8 °F75.2 °F89 %29.99 in10.0 miENE (70°)15.0 mphRainLight Rain
7:27 PM78.8 °F75.2 °F89 %29.99 in10.0 miENE (70°)17.3 mphRainLight Rain
7:28 PM78.8 °F75.2 °F89 %29.99 in10.0 miENE (70°)16.1 mphMostly Cloudy
7:38 PM78.8 °F73.4 °F83 %29.99 in10.0 miENE (70°)16.1 mphMostly Cloudy
7:43 PM78.8 °F73.4 °F83 %29.99 in10.0 miENE (70°)12.7 mphMostly Cloudy
7:53 PM78.8 °F73.4 °F83 %30.00 in10.0 miENE (60°)13.8 mphMostly Cloudy
7:58 PM78.1 °F74.3 °F88 %29.97 in10.0 miENE (70°)12.7 mph0.00 inMostly Cloudy
8:03 PM78.8 °F75.2 °F89 %30.00 in10.0 miENE (70°)13.8 mphMostly Cloudy
8:08 PM78.8 °F73.4 °F83 %30.00 in10.0 miENE (60°)13.8 mphMostly Cloudy
8:13 PM78.8 °F75.2 °F89 %30.00 in10.0 miENE (60°)13.8 mphMostly Cloudy
8:18 PM78.8 °F75.2 °F89 %30.00 in10.0 miENE (60°)12.7 mphMostly Cloudy
8:23 PM78.8 °F73.4 °F83 %30.01 in10.0 miENE (70°)13.8 mphMostly Cloudy
8:28 PM78.8 °F73.4 °F83 %30.01 in10.0 miENE (60°)11.5 mphScattered Clouds
8:33 PM78.8 °F75.2 °F89 %30.01 in10.0 miENE (60°)12.7 mphMostly Cloudy
8:38 PM78.8 °F75.2 °F89 %30.01 in10.0 miENE (60°)12.7 mphMostly Cloudy
8:43 PM78.8 °F75.2 °F89 %30.01 in10.0 miENE (60°)11.5 mphMostly Cloudy
8:58 PM78.1 °F74.3 °F88 %29.99 in10.0 miENE (60°)13.8 mphMostly Cloudy
9:03 PM78.8 °F75.2 °F89 %30.01 in10.0 miENE (60°)12.7 mphMostly Cloudy
9:23 PM78.8 °F75.2 °F89 %30.02 in10.0 miENE (70°)15.0 mphMostly Cloudy
9:28 PM78.8 °F75.2 °F89 %30.02 in10.0 miENE (70°)13.8 mphMostly Cloudy
9:33 PM77.0 °F73.4 °F89 %30.02 in10.0 miENE (70°)13.8 mphScattered Clouds
9:43 PM78.8 °F73.4 °F83 %30.02 in10.0 miENE (70°)12.7 mphMostly Cloudy
9:48 PM78.8 °F73.4 °F83 %30.02 in10.0 miENE (70°)13.8 mphMostly Cloudy
9:58 PM78.3 °F74.5 °F88 %29.99 in10.0 miENE (70°)9.2 mphMostly Cloudy
9:59 PM78.8 °F75.2 °F89 %30.02 in10.0 miENE (60°)13.8 mphDrizzle
10:09 PM77.0 °F75.2 °F94 %30.03 in10.0 miENE (70°)15.0 mphRainLight Rain
10:10 PM77.0 °F75.2 °F94 %30.02 in10.0 miENE (70°)16.1 mphMostly Cloudy
10:50 PM77.0 °F73.4 °F89 %30.03 in10.0 miENE (70°)12.7 mphMostly Cloudy
10:58 PM77.7 °F73.4 °F86 %30.00 in10.0 miEast (80°)12.7 mph0.00 inMostly Cloudy
11:03 PM77.0 °F73.4 °F89 %30.03 in10.0 miEast (80°)11.5 mphMostly Cloudy
11:08 PM77.0 °F73.4 °F89 %30.03 in10.0 miEast (80°)12.7 mphMostly Cloudy
11:18 PM77.0 °F73.4 °F89 %30.03 in10.0 miENE (70°)10.4 mphMostly Cloudy
11:28 PM77.0 °F73.4 °F89 %30.03 in10.0 miENE (70°)15.0 mphMostly Cloudy
11:33 PM78.8 °F73.4 °F83 %30.02 in10.0 miENE (60°)12.7 mphScattered Clouds
11:38 PM78.8 °F73.4 °F83 %30.03 in10.0 miENE (70°)15.0 mphScattered Clouds
11:48 PM77.0 °F73.4 °F89 %30.02 in10.0 miENE (70°)12.7 mphMostly Cloudy
11:53 PM77.0 °F73.4 °F89 %30.02 in10.0 miEast (80°)13.8 mphScattered Clouds
11:58 PM77.7 °F73.9 °F88 %29.99 in10.0 miENE (70°)12.7 mphScattered Clouds
Hourly data recorded from PGUA, located miles away from Achang Bay, Guam







STORIES FROM OUR PARTNERS